Weather in Ooststellingwerf

Netherlands     52°58′32″N   6°14′46″E
temp.,
°C
wind,
m/s
gust,
m/s
humid.,
%
clouds,
%
prec.,
mm/h
press.,
hPa
HPBL,
m
26 june, sun
sun2623:00+17ene3597100 2.0 1012115
02:00+17se2292100 3.6 101220
05:00+16sw4895100 0.4 1012301
08:00+17sw469096 0.4 1013403
11:00+19sw676778 0.0 10151005
14:00+20sw565977 0.0 10161145
17:00+21sw3555100 0.0 10161339
20:00+19se2364100 0.0 101664
27 june, mon
mon2723:00+15e2290100 0.1 101636
02:00+15se2289100 0.1 101654
05:00+15ese2294100 0.1 101563
08:00+15ese1295100 0.3 101592
11:00+18sw2279100 0.1 1015460
14:00+19w3473100 1.4 1016636
17:00+19w4564100 0.1 1017798
20:00+18wsw357112 0.1 1018550
28 june, tue
tue2823:00+13wsw228694 0.0 102020
02:00+11ssw22850 0.0 102022
05:00+11ssw35805 0.0 102169
08:00+15ssw46754 0.0 1021257
11:00+19sw57560 0.0 10211118
14:00+22sw46492 0.0 10202034
17:00+22w33522 0.0 10191179
20:00+21nne456656 0.0 1018257
29 june, wed
wed2923:00+15ne468329 0.0 1019103
02:00+14ese378078 0.0 101797
05:00+14ese36765 0.0 101793
08:00+18se47755 0.0 1016225
11:00+24sse355593 0.0 1016743
14:00+26s3546100 0.0 10152283
17:00+27sw354249 0.0 10142187
20:00+22n467115 0.0 1014248
30 june, thu
thu3023:00+19nne357550 0.0 1015100
02:00+17ene349127 0.0 101459
05:00+17ese35830 0.0 101369
08:00+21ese37668 0.0 1013230
11:00+22ese4671100 0.2 1012391
14:00+24ese3674100 0.5 1012306
17:00+29ese574522 0.0 10101879
20:00+26e712580 0.0 1008503